Time,TemperatureF,DewpointF,PressureIn,WindDirection,WindDirectionDegrees,WindSpeedMPH,WindSpeedGustMPH,Humidity,HourlyPrecipIn,Conditions,Clouds,dailyrainin,SoftwareType,DateUTC
2013-10-09 00:02:00,36.0,28.0,-100.00,North,0,3.0,4.0,71,0.00,,,0.02,,2013-10-09 08:02:00,
2013-10-09 00:12:00,36.0,28.0,-100.00,North,0,3.0,4.0,71,0.00,,,0.02,,2013-10-09 08:12:00,
2013-10-09 00:23:00,35.0,31.0,-100.00,NW,310,4.0,6.0,85,0.00,,,0.02,,2013-10-09 08:23:00,
2013-10-09 00:32:00,35.0,31.0,-100.00,NW,310,4.0,6.0,85,0.00,,,0.02,,2013-10-09 08:32:00,
2013-10-09 00:42:00,35.0,31.0,-100.00,NW,310,4.0,6.0,85,0.00,,,0.02,,2013-10-09 08:42:00,
2013-10-09 00:53:00,34.0,31.0,-100.00,NNW,330,5.0,8.0,89,0.00,,,0.02,,2013-10-09 08:53:00,
2013-10-09 01:02:00,34.0,31.0,-100.00,NNW,330,5.0,8.0,89,0.00,,,0.02,,2013-10-09 09:02:00,
2013-10-09 01:11:00,34.0,31.0,-100.00,NNW,330,5.0,8.0,89,0.00,,,0.02,,2013-10-09 09:11:00,
2013-10-09 01:22:00,34.0,31.0,-100.00,NNW,330,7.0,10.0,90,0.01,,,0.03,,2013-10-09 09:22:00,
2013-10-09 01:33:00,34.0,31.0,-100.00,NNW,330,7.0,10.0,90,0.01,,,0.03,,2013-10-09 09:33:00,
2013-10-09 01:43:00,34.0,31.0,-100.00,NNW,330,7.0,10.0,90,0.01,,,0.03,,2013-10-09 09:43:00,
2013-10-09 01:53:00,33.0,31.0,-100.00,NNW,345,6.0,12.0,91,0.01,,,0.03,,2013-10-09 09:53:00,
2013-10-09 02:03:00,33.0,31.0,-100.00,NNW,345,6.0,12.0,91,0.01,,,0.03,,2013-10-09 10:03:00,
2013-10-09 02:12:00,33.0,31.0,-100.00,NNW,345,6.0,12.0,91,0.01,,,0.03,,2013-10-09 10:12:00,
2013-10-09 02:23:00,32.0,30.0,-100.00,NNW,340,6.0,11.0,91,0.00,,,0.03,,2013-10-09 10:23:00,
2013-10-09 02:32:00,32.0,30.0,-100.00,NNW,340,6.0,11.0,91,0.00,,,0.03,,2013-10-09 10:32:00,
2013-10-09 02:43:00,32.0,30.0,-100.00,NNW,340,6.0,11.0,91,0.00,,,0.03,,2013-10-09 10:43:00,
2013-10-09 02:53:00,31.0,29.0,-100.00,NNW,345,7.0,13.0,92,0.00,,,0.03,,2013-10-09 10:53:00,
2013-10-09 03:02:00,31.0,29.0,-100.00,NNW,345,7.0,13.0,92,0.00,,,0.03,,2013-10-09 11:02:00,
2013-10-09 03:12:00,31.0,29.0,-100.00,NNW,345,7.0,13.0,92,0.00,,,0.03,,2013-10-09 11:12:00,
2013-10-09 03:22:00,30.0,28.0,-100.00,NW,325,7.0,14.0,92,0.00,,,0.03,,2013-10-09 11:22:00,
2013-10-09 03:33:00,30.0,28.0,-100.00,NW,325,7.0,14.0,92,0.00,,,0.03,,2013-10-09 11:33:00,
2013-10-09 03:42:00,30.0,28.0,-100.00,NW,325,7.0,14.0,92,0.00,,,0.03,,2013-10-09 11:42:00,
2013-10-09 03:52:00,30.0,28.0,-100.00,NW,320,7.0,13.0,92,0.00,,,0.03,,2013-10-09 11:52:00,
2013-10-09 04:01:00,30.0,28.0,-100.00,NW,320,7.0,13.0,92,0.00,,,0.03,,2013-10-09 12:01:00,
2013-10-09 04:12:00,30.0,28.0,-100.00,NW,320,7.0,13.0,92,0.00,,,0.03,,2013-10-09 12:12:00,
2013-10-09 04:21:00,29.0,27.0,-100.00,NW,315,6.0,12.0,92,0.00,,,0.03,,2013-10-09 12:21:00,
2013-10-09 04:32:00,29.0,27.0,-100.00,NW,315,6.0,12.0,92,0.00,,,0.03,,2013-10-09 12:32:00,
2013-10-09 04:42:00,29.0,27.0,-100.00,NW,315,6.0,12.0,92,0.00,,,0.03,,2013-10-09 12:42:00,
2013-10-09 04:52:00,30.0,28.0,-100.00,NW,325,7.0,12.0,92,0.00,,,0.03,,2013-10-09 12:52:00,
2013-10-09 05:02:00,30.0,28.0,-100.00,NW,325,7.0,12.0,92,0.00,,,0.03,,2013-10-09 13:02:00,
2013-10-09 05:11:00,30.0,28.0,-100.00,NW,325,7.0,12.0,92,0.00,,,0.03,,2013-10-09 13:11:00,
2013-10-09 05:22:00,30.0,28.0,-100.00,NW,325,5.0,9.0,92,0.00,,,0.03,,2013-10-09 13:22:00,
2013-10-09 05:32:00,30.0,28.0,-100.00,NW,325,5.0,9.0,92,0.00,,,0.03,,2013-10-09 13:32:00,
2013-10-09 05:42:00,30.0,28.0,-100.00,NW,325,5.0,9.0,92,0.00,,,0.03,,2013-10-09 13:42:00,
2013-10-09 05:52:00,32.0,30.0,-100.00,WNW,285,7.0,14.0,92,0.00,,,0.03,,2013-10-09 13:52:00,
2013-10-09 06:02:00,32.0,30.0,-100.00,WNW,285,7.0,14.0,92,0.00,,,0.03,,2013-10-09 14:02:00,
2013-10-09 06:11:00,32.0,30.0,-100.00,WNW,285,7.0,14.0,92,0.00,,,0.03,,2013-10-09 14:11:00,
2013-10-09 06:21:00,32.0,31.0,-100.00,West,260,11.0,21.0,93,0.00,,,0.03,,2013-10-09 14:21:00,
2013-10-09 06:32:00,32.0,31.0,-100.00,West,260,11.0,21.0,93,0.00,,,0.03,,2013-10-09 14:32:00,
2013-10-09 06:41:00,32.0,31.0,-100.00,West,260,11.0,21.0,93,0.00,,,0.03,,2013-10-09 14:41:00,
2013-10-09 06:52:00,32.0,31.0,-100.00,West,270,11.0,22.0,93,0.00,,,0.03,,2013-10-09 14:52:00,
2013-10-09 07:02:00,32.0,31.0,-100.00,West,270,11.0,22.0,93,0.00,,,0.03,,2013-10-09 15:02:00,
2013-10-09 07:11:00,32.0,31.0,-100.00,West,270,11.0,22.0,93,0.00,,,0.03,,2013-10-09 15:11:00,
2013-10-09 07:21:00,32.0,30.0,-100.00,West,265,8.0,19.0,93,0.01,,,0.04,,2013-10-09 15:21:00,
2013-10-09 07:33:00,32.0,30.0,-100.00,West,265,8.0,19.0,93,0.01,,,0.04,,2013-10-09 15:33:00,
2013-10-09 07:43:00,32.0,30.0,-100.00,West,265,8.0,19.0,93,0.01,,,0.04,,2013-10-09 15:43:00,
2013-10-09 07:53:00,31.0,30.0,-100.00,West,275,10.0,16.0,93,0.01,,,0.04,,2013-10-09 15:53:00,
2013-10-09 08:03:00,31.0,30.0,-100.00,West,275,10.0,16.0,93,0.01,,,0.04,,2013-10-09 16:03:00,
2013-10-09 08:13:00,31.0,30.0,-100.00,West,275,10.0,16.0,93,0.01,,,0.04,,2013-10-09 16:13:00,
2013-10-09 08:24:00,31.0,29.0,-100.00,WSW,245,9.0,17.0,93,0.00,,,0.04,,2013-10-09 16:24:00,
2013-10-09 08:32:00,31.0,29.0,-100.00,WSW,245,9.0,17.0,93,0.00,,,0.04,,2013-10-09 16:32:00,
2013-10-09 08:42:00,31.0,29.0,-100.00,WSW,245,9.0,17.0,93,0.00,,,0.04,,2013-10-09 16:42:00,
2013-10-09 08:52:00,31.0,29.0,-100.00,West,270,12.0,22.0,93,0.00,,,0.04,,2013-10-09 16:52:00,
2013-10-09 09:03:00,31.0,29.0,-100.00,West,270,12.0,22.0,93,0.00,,,0.04,,2013-10-09 17:03:00,
2013-10-09 09:12:00,31.0,29.0,-100.00,West,270,12.0,22.0,93,0.00,,,0.04,,2013-10-09 17:12:00,
2013-10-09 09:22:00,31.0,29.0,-100.00,West,280,13.0,26.0,93,0.00,,,0.04,,2013-10-09 17:22:00,
2013-10-09 09:33:00,31.0,29.0,-100.00,West,280,13.0,26.0,93,0.00,,,0.04,,2013-10-09 17:33:00,
2013-10-09 09:42:00,31.0,29.0,-100.00,West,280,13.0,26.0,93,0.00,,,0.04,,2013-10-09 17:42:00,
2013-10-09 09:52:00,31.0,29.0,-100.00,West,270,12.0,28.0,93,0.00,,,0.04,,2013-10-09 17:52:00,
2013-10-09 10:01:00,31.0,29.0,-100.00,West,270,12.0,28.0,93,0.00,,,0.04,,2013-10-09 18:01:00,
2013-10-09 10:12:00,31.0,29.0,-100.00,West,270,12.0,28.0,93,0.00,,,0.04,,2013-10-09 18:12:00,
2013-10-09 10:21:00,31.0,29.0,-100.00,West,270,15.0,26.0,93,0.00,,,0.02,,2013-10-09 18:21:00,
2013-10-09 10:32:00,31.0,29.0,-100.00,West,270,15.0,26.0,93,0.00,,,0.02,,2013-10-09 18:32:00,
2013-10-09 10:42:00,31.0,29.0,-100.00,West,270,15.0,26.0,93,0.00,,,0.02,,2013-10-09 18:42:00,
2013-10-09 10:52:00,31.0,29.0,-100.00,West,270,9.0,23.0,93,0.00,,,0.02,,2013-10-09 18:52:00,
2013-10-09 11:01:00,31.0,29.0,-100.00,West,270,9.0,23.0,93,0.00,,,0.02,,2013-10-09 19:01:00,
2013-10-09 11:11:00,31.0,29.0,-100.00,West,270,9.0,23.0,93,0.00,,,0.02,,2013-10-09 19:11:00,
2013-10-09 11:21:00,31.0,29.0,-100.00,West,275,12.0,27.0,93,0.00,,,0.02,,2013-10-09 19:21:00,
2013-10-09 11:32:00,31.0,29.0,-100.00,West,275,12.0,27.0,93,0.00,,,0.02,,2013-10-09 19:32:00,
2013-10-09 11:42:00,31.0,29.0,-100.00,West,275,12.0,27.0,93,0.00,,,0.02,,2013-10-09 19:42:00,
2013-10-09 11:52:00,31.0,29.0,-100.00,West,260,12.0,27.0,93,0.00,,,0.02,,2013-10-09 19:52:00,
2013-10-09 12:02:00,31.0,29.0,-100.00,West,260,12.0,27.0,93,0.00,,,0.02,,2013-10-09 20:02:00,
2013-10-09 12:11:00,31.0,29.0,-100.00,West,260,12.0,27.0,93,0.00,,,0.02,,2013-10-09 20:11:00,
2013-10-09 12:22:00,31.0,29.0,-100.00,West,260,11.0,21.0,93,0.00,,,0.02,,2013-10-09 20:22:00,
2013-10-09 12:32:00,31.0,29.0,-100.00,West,260,11.0,21.0,93,0.00,,,0.02,,2013-10-09 20:32:00,
2013-10-09 12:43:00,31.0,29.0,-100.00,West,260,11.0,21.0,93,0.00,,,0.02,,2013-10-09 20:43:00,
2013-10-09 12:52:00,31.0,29.0,-100.00,West,270,11.0,26.0,93,0.00,,,0.02,,2013-10-09 20:52:00,
2013-10-09 13:02:00,31.0,29.0,-100.00,West,270,11.0,26.0,93,0.00,,,0.02,,2013-10-09 21:02:00,
2013-10-09 13:11:00,31.0,29.0,-100.00,West,270,11.0,26.0,93,0.00,,,0.02,,2013-10-09 21:11:00,
2013-10-09 13:22:00,31.0,30.0,-100.00,West,260,13.0,26.0,93,0.00,,,0.02,,2013-10-09 21:22:00,
2013-10-09 13:34:00,31.0,30.0,-100.00,West,260,13.0,26.0,93,0.00,,,0.02,,2013-10-09 21:34:00,
2013-10-09 13:43:00,31.0,30.0,-100.00,West,260,13.0,26.0,93,0.00,,,0.02,,2013-10-09 21:43:00,
2013-10-09 13:53:00,31.0,30.0,-100.00,West,260,12.0,26.0,93,0.00,,,0.02,,2013-10-09 21:53:00,
2013-10-09 14:03:00,31.0,30.0,-100.00,West,260,12.0,26.0,93,0.00,,,0.02,,2013-10-09 22:03:00,
2013-10-09 14:13:00,31.0,30.0,-100.00,West,260,12.0,26.0,93,0.00,,,0.02,,2013-10-09 22:13:00,
2013-10-09 14:24:00,31.0,30.0,-100.00,West,270,9.0,20.0,93,0.00,,,0.02,,2013-10-09 22:24:00,
2013-10-09 14:34:00,31.0,30.0,-100.00,West,270,9.0,20.0,93,0.00,,,0.02,,2013-10-09 22:34:00,
2013-10-09 14:43:00,31.0,30.0,-100.00,West,270,9.0,20.0,93,0.00,,,0.02,,2013-10-09 22:43:00,
2013-10-09 14:53:00,31.0,30.0,-100.00,West,270,10.0,21.0,93,0.00,,,0.02,,2013-10-09 22:53:00,
2013-10-09 15:03:00,31.0,30.0,-100.00,West,270,10.0,21.0,93,0.00,,,0.02,,2013-10-09 23:03:00,
2013-10-09 15:12:00,31.0,30.0,-100.00,West,270,10.0,21.0,93,0.00,,,0.02,,2013-10-09 23:12:00,
2013-10-09 15:22:00,31.0,30.0,-100.00,West,275,14.0,24.0,93,0.00,,,0.02,,2013-10-09 23:22:00,
2013-10-09 15:34:00,31.0,30.0,-100.00,West,275,14.0,24.0,93,0.00,,,0.02,,2013-10-09 23:34:00,
2013-10-09 15:42:00,31.0,30.0,-100.00,West,275,14.0,24.0,93,0.00,,,0.02,,2013-10-09 23:42:00,
2013-10-09 15:53:00,32.0,30.0,-100.00,West,260,12.0,32.0,93,0.00,,,0.02,,2013-10-09 23:53:00,
2013-10-09 16:02:00,32.0,30.0,-100.00,West,260,12.0,32.0,93,0.00,,,0.02,,2013-10-10 00:02:00,
2013-10-09 16:12:00,32.0,30.0,-100.00,West,260,12.0,32.0,93,0.00,,,0.02,,2013-10-10 00:12:00,
2013-10-09 16:22:00,31.0,30.0,-100.00,West,260,12.0,29.0,93,0.00,,,0.02,,2013-10-10 00:22:00,
2013-10-09 16:32:00,31.0,30.0,-100.00,West,260,12.0,29.0,93,0.00,,,0.02,,2013-10-10 00:32:00,
2013-10-09 16:42:00,31.0,30.0,-100.00,West,260,12.0,29.0,93,0.00,,,0.02,,2013-10-10 00:42:00,
2013-10-09 16:52:00,31.0,30.0,-100.00,WSW,255,16.0,26.0,93,0.01,,,0.03,,2013-10-10 00:52:00,
2013-10-09 17:01:00,31.0,30.0,-100.00,WSW,255,16.0,26.0,93,0.01,,,0.03,,2013-10-10 01:01:00,
2013-10-09 17:11:00,31.0,30.0,-100.00,WSW,255,16.0,26.0,93,0.01,,,0.03,,2013-10-10 01:11:00,
2013-10-09 17:21:00,31.0,30.0,-100.00,West,270,15.0,26.0,93,0.00,,,0.03,,2013-10-10 01:21:00,
2013-10-09 17:32:00,31.0,30.0,-100.00,West,270,15.0,26.0,93,0.00,,,0.03,,2013-10-10 01:32:00,
2013-10-09 17:42:00,31.0,30.0,-100.00,West,270,15.0,26.0,93,0.00,,,0.03,,2013-10-10 01:42:00,
2013-10-09 17:52:00,31.0,30.0,-100.00,West,270,14.0,26.0,93,0.00,,,0.03,,2013-10-10 01:52:00,
2013-10-09 18:02:00,31.0,30.0,-100.00,West,270,14.0,26.0,93,0.00,,,0.03,,2013-10-10 02:02:00,
2013-10-09 18:12:00,31.0,30.0,-100.00,West,270,14.0,26.0,93,0.00,,,0.03,,2013-10-10 02:12:00,
2013-10-09 18:22:00,31.0,30.0,-100.00,West,275,12.0,26.0,93,0.00,,,0.03,,2013-10-10 02:22:00,
2013-10-09 18:32:00,31.0,30.0,-100.00,West,275,12.0,26.0,93,0.00,,,0.03,,2013-10-10 02:32:00,
2013-10-09 18:42:00,31.0,30.0,-100.00,West,275,12.0,26.0,93,0.00,,,0.03,,2013-10-10 02:42:00,
2013-10-09 19:12:00,31.0,29.0,-100.00,West,270,14.0,22.0,93,0.00,,,0.03,,2013-10-10 03:12:00,
2013-10-09 19:22:00,31.0,29.0,-100.00,West,270,15.0,24.0,93,0.00,,,0.03,,2013-10-10 03:22:00,
2013-10-09 19:34:00,31.0,29.0,-100.00,West,270,15.0,24.0,93,0.00,,,0.03,,2013-10-10 03:34:00,
2013-10-09 19:44:00,31.0,29.0,-100.00,West,270,15.0,24.0,93,0.00,,,0.03,,2013-10-10 03:44:00,
2013-10-09 19:54:00,31.0,29.0,-100.00,West,260,15.0,27.0,93,0.00,,,0.03,,2013-10-10 03:54:00,
2013-10-09 20:04:00,31.0,29.0,-100.00,West,260,15.0,27.0,93,0.00,,,0.03,,2013-10-10 04:04:00,
2013-10-09 20:13:00,31.0,29.0,-100.00,West,260,15.0,27.0,93,0.00,,,0.03,,2013-10-10 04:13:00,
2013-10-09 20:24:00,31.0,29.0,-100.00,West,270,12.0,22.0,93,0.00,,,0.03,,2013-10-10 04:24:00,
2013-10-09 20:33:00,31.0,29.0,-100.00,West,270,12.0,22.0,93,0.00,,,0.03,,2013-10-10 04:33:00,
2013-10-09 20:46:00,31.0,29.0,-100.00,West,270,12.0,22.0,93,0.00,,,0.03,,2013-10-10 04:46:00,
2013-10-09 20:53:00,31.0,29.0,-100.00,West,275,9.0,26.0,93,0.00,,,0.03,,2013-10-10 04:53:00,
2013-10-09 21:03:00,31.0,29.0,-100.00,West,275,9.0,26.0,93,0.00,,,0.03,,2013-10-10 05:03:00,
2013-10-09 21:12:00,31.0,29.0,-100.00,West,275,9.0,26.0,93,0.00,,,0.03,,2013-10-10 05:12:00,
2013-10-09 21:22:00,30.0,29.0,-100.00,West,260,13.0,21.0,93,0.00,,,0.03,,2013-10-10 05:22:00,
2013-10-09 21:34:00,30.0,29.0,-100.00,West,260,13.0,21.0,93,0.00,,,0.03,,2013-10-10 05:34:00,
2013-10-09 21:43:00,30.0,29.0,-100.00,West,260,13.0,21.0,93,0.00,,,0.03,,2013-10-10 05:43:00,
2013-10-09 21:52:00,30.0,28.0,-100.00,West,260,7.0,21.0,93,0.00,,,0.03,,2013-10-10 05:52:00,
2013-10-09 22:03:00,30.0,28.0,-100.00,West,260,7.0,21.0,93,0.00,,,0.03,,2013-10-10 06:03:00,
2013-10-09 22:13:00,30.0,28.0,-100.00,West,260,7.0,21.0,93,0.00,,,0.03,,2013-10-10 06:13:00,
2013-10-09 22:22:00,30.0,28.0,-100.00,West,260,7.0,21.0,93,0.00,,,0.03,,2013-10-10 06:22:00,
2013-10-09 22:33:00,30.0,28.0,-100.00,West,260,7.0,21.0,93,0.00,,,0.03,,2013-10-10 06:33:00,
2013-10-09 22:42:00,30.0,28.0,-100.00,West,260,7.0,21.0,93,0.00,,,0.03,,2013-10-10 06:42:00,
2013-10-09 22:52:00,30.0,28.0,-100.00,West,260,7.0,20.0,93,0.00,,,0.03,,2013-10-10 06:52:00,
2013-10-09 23:02:00,30.0,28.0,-100.00,West,260,7.0,20.0,93,0.00,,,0.03,,2013-10-10 07:02:00,
2013-10-09 23:11:00,30.0,28.0,-100.00,West,260,7.0,20.0,93,0.00,,,0.03,,2013-10-10 07:11:00,
2013-10-09 23:21:00,30.0,28.0,-100.00,West,265,8.0,21.0,93,0.00,,,0.03,,2013-10-10 07:21:00,
2013-10-09 23:32:00,30.0,28.0,-100.00,West,265,8.0,21.0,93,0.00,,,0.03,,2013-10-10 07:32:00,
2013-10-09 23:42:00,30.0,28.0,-100.00,West,265,8.0,21.0,93,0.00,,,0.03,,2013-10-10 07:42:00,
2013-10-09 23:52:00,30.0,28.0,-100.00,WSW,245,6.0,15.0,93,0.00,,,0.03,,2013-10-10 07:52:00,